Weather History for Estherville, IA

Change the Weather History Date:

Monday, October 21, 2013

  Actual Average Record
Temperature  
Mean Temperature 36 °F 46 °F  
Max Temperature 46 °F 57 °F 84 °F (1978)
Min Temperature 26 °F 34 °F 20 °F (1960)
Degree Days  
Heating Degree Days 29 19  
Month to date heating degree days 263 321  
Since 1 July heating degree days 411 529  
Cooling Degree Days 0 0  
Month to date cooling degree days 0 4  
Year to date cooling degree days 712 591  
Moisture  
Dew Point 27 °F    
Average Humidity 71    
Maximum Humidity 92    
Minimum Humidity 49    
Precipitation  
Precipitation 0.00 in 0.05 in 0.85 in (1963)
Month to date precipitation 2.40 1.71  
Sea Level Pressure  
Sea Level Pressure 30.01 in    
Wind  
Wind Speed 8 mph (WNW)    
Max Wind Speed 22 mph    
Max Gust Speed 28 mph    
Visibility 10 miles    
Events      
T = Trace of Precipitation, MM = Missing Value Source: NWS Daily Summary

Daily Weather History Graph

Daily Weather History Graph

Search for Another Location

Airport:

Trip Planner

Search our weather history database for the weather conditions in past years. The results will help you decide how hot, cold, wet, or windy it might be!

Date:

Astronomy

Oct. 21, 2013 Rise Set
Actual Time 7:40 AM CDT 6:25 PM CDT
Civil Twilight 7:11 AM CDT 6:54 PM CDT
Nautical Twilight 6:38 AM CDT 7:28 PM CDT
Astronomical Twilight 6:05 AM CDT 8:01 PM CDT
Moon 8:14 PM CDT (10/21) 10:20 AM CDT (10/21)
Length of Visible Light 11h 43m
Length of Day
10h 45m
Waning Gibbous, 92% of the Moon is Illuminated
Oct 21
Waning Gibbous
Oct 26
Last Quarter
Nov 3
New
Nov 9
First Quarter
Nov 17
Full

Hourly Weather History & Observations

Time (CDT) Temp. Windchill Dew Point Humidity Pressure Visibility Wind Dir Wind Speed Gust Speed Precip Events Conditions
12:52 AM 36.0 °F 26.3 °F 28.9 °F 76% 29.97 in 10.0 mi NNW 16.1 mph - N/A   Mostly Cloudy
1:52 AM 32.0 °F 23.6 °F 28.0 °F 85% 30.00 in 10.0 mi NW 10.4 mph - N/A   Clear
2:52 AM 30.0 °F 21.7 °F 28.9 °F 96% 30.01 in 10.0 mi WNW 9.2 mph - N/A   Clear
3:52 AM 26.1 °F 17.6 °F 25.0 °F 96% 30.03 in 10.0 mi WNW 8.1 mph - N/A   Clear
4:52 AM 28.9 °F 21.9 °F 27.0 °F 92% 30.03 in 10.0 mi West 6.9 mph - N/A   Overcast
5:52 AM 27.0 °F 19.5 °F 25.0 °F 92% 30.03 in 10.0 mi WNW 6.9 mph - N/A   Scattered Clouds
6:52 AM 30.0 °F 25.2 °F 27.0 °F 88% 30.03 in 10.0 mi West 4.6 mph - N/A   Overcast
7:52 AM 32.0 °F 27.5 °F 28.0 °F 85% 30.04 in 10.0 mi WSW 4.6 mph - N/A   Overcast
8:52 AM 34.0 °F 27.2 °F 28.9 °F 82% 30.04 in 10.0 mi West 8.1 mph - N/A   Overcast
9:52 AM 36.0 °F 27.1 °F 28.0 °F 73% 30.05 in 10.0 mi WNW 13.8 mph - N/A   Overcast
10:32 AM 37.4 °F 29.8 °F 28.4 °F 70% 30.01 in 10.0 mi WNW 11.5 mph - N/A   Overcast
10:52 AM 36.0 °F 26.3 °F 28.9 °F 76% 30.05 in 8.0 mi WNW 16.1 mph 24.2 mph N/A   Overcast
11:09 AM 37.4 °F 28.9 °F 28.4 °F 70% 30.01 in 10.0 mi WNW 13.8 mph - N/A   Overcast
11:39 AM 37.4 °F 28.9 °F 28.4 °F 70% 30.01 in 10.0 mi West 13.8 mph - N/A   Overcast
11:52 AM 37.9 °F 29.6 °F 30.0 °F 73% 30.04 in 10.0 mi West 13.8 mph - N/A   Overcast
12:06 PM 39.2 °F 32.0 °F 28.4 °F 65% 30.00 in 10.0 mi WNW 11.5 mph - N/A   Overcast
12:52 PM 39.9 °F 30.5 °F 26.1 °F 58% 30.03 in 10.0 mi NW 19.6 mph 26.5 mph N/A   Overcast
1:52 PM 42.1 °F 34.5 °F 26.1 °F 53% 30.01 in 10.0 mi NW 15.0 mph - N/A   Overcast
2:52 PM 44.1 °F 37.1 °F 26.1 °F 49% 29.99 in 10.0 mi NW 15.0 mph - N/A   Overcast
3:52 PM 44.1 °F 36.8 °F 27.0 °F 51% 29.99 in 10.0 mi WNW 16.1 mph - N/A   Mostly Cloudy
4:52 PM 44.1 °F 38.6 °F 27.0 °F 51% 29.99 in 10.0 mi NNW 10.4 mph - N/A   Overcast
5:52 PM 42.1 °F 38.4 °F 27.0 °F 55% 29.99 in 10.0 mi NNW 5.8 mph - N/A   Mostly Cloudy
6:52 PM 39.9 °F - 27.0 °F 60% 29.99 in 10.0 mi Calm Calm - N/A   Scattered Clouds
7:52 PM 33.1 °F - 25.0 °F 72% 29.99 in 7.0 mi Calm Calm - N/A   Scattered Clouds
8:52 PM 33.1 °F 28.7 °F 26.1 °F 75% 29.99 in 10.0 mi East 4.6 mph - N/A   Mostly Cloudy
9:52 PM 28.9 °F 25.2 °F 24.1 °F 82% 30.00 in 10.0 mi East 3.5 mph - N/A   Scattered Clouds
10:52 PM 30.9 °F - 26.1 °F 82% 30.00 in 10.0 mi Calm Calm - N/A   Overcast
11:52 PM 28.9 °F 25.2 °F 26.1 °F 89% 29.99 in 10.0 mi ESE 3.5 mph - N/A   Scattered Clouds